TimeAKST,TemperatureF,Dew PointF,Humidity,Sea Level PressureIn,VisibilityMPH,Wind Direction,Wind SpeedMPH,Gust SpeedMPH,PrecipitationIn,Events,Conditions,WindDirDegrees,DateUTC
12:56 AM,34.0,28.9,82,29.09,9.0,Calm,Calm,-,0.00,Rain,Light Rain,0,2012-12-31 09:56:00
1:31 AM,33.8,30.2,87,29.08,4.0,Calm,Calm,-,0.00,,Overcast,0,2012-12-31 10:31:00
1:43 AM,33.8,30.2,87,29.08,5.0,Calm,Calm,-,0.00,,Overcast,0,2012-12-31 10:43:00
1:56 AM,34.0,30.0,85,29.10,4.0,Calm,Calm,-,0.00,,Overcast,0,2012-12-31 10:56:00
2:08 AM,33.8,30.2,87,29.08,8.0,Calm,Calm,-,0.00,Rain,Light Rain,0,2012-12-31 11:08:00
2:31 AM,33.8,30.2,87,29.08,9.0,NE,3.5,-,0.00,Rain,Light Rain,40,2012-12-31 11:31:00
2:56 AM,34.0,30.0,85,29.10,10.0,Calm,Calm,-,0.00,,Overcast,0,2012-12-31 11:56:00
3:56 AM,34.0,28.9,82,29.11,10.0,Calm,Calm,-,0.00,Rain,Light Rain,0,2012-12-31 12:56:00
4:56 AM,34.0,30.0,85,29.12,10.0,Calm,Calm,-,0.00,Rain,Light Rain,0,2012-12-31 13:56:00
5:56 AM,34.0,30.0,85,29.13,10.0,West,5.8,-,0.00,Rain,Light Rain,270,2012-12-31 14:56:00
6:56 AM,34.0,30.9,89,29.14,6.0,NNW,4.6,-,0.00,Snow,Light Snow,330,2012-12-31 15:56:00
7:56 AM,33.1,30.9,92,29.16,6.0,WNW,3.5,-,0.01,Snow,Light Snow,300,2012-12-31 16:56:00
8:56 AM,33.1,30.9,92,29.17,6.0,Calm,Calm,-,0.01,Snow,Light Snow,0,2012-12-31 17:56:00
9:56 AM,34.0,30.9,89,29.18,6.0,WNW,9.2,-,0.00,Snow,Light Snow,300,2012-12-31 18:56:00
9:59 AM,33.8,30.2,87,29.17,2.5,WNW,10.4,-,0.00,Snow,Light Snow,300,2012-12-31 18:59:00
10:56 AM,33.1,30.9,92,29.20,2.0,WNW,11.5,-,0.01,Snow,Light Snow,290,2012-12-31 19:56:00
11:41 AM,33.8,30.2,87,29.19,5.0,WNW,6.9,-,0.00,Snow,Light Snow,290,2012-12-31 20:41:00
11:56 AM,34.0,30.9,89,29.21,5.0,NNW,6.9,-,0.01,Snow,Light Snow,330,2012-12-31 20:56:00
12:56 PM,34.0,30.9,89,29.22,5.0,WNW,16.1,-,0.00,Snow,Light Snow,300,2012-12-31 21:56:00
1:56 PM,34.0,30.0,85,29.21,2.0,NNW,15.0,-,N/A,Snow,Light Snow,330,2012-12-31 22:56:00
2:28 PM,33.8,30.2,87,29.19,4.0,NNW,12.7,20.7,N/A,Snow,Light Snow,340,2012-12-31 23:28:00
2:56 PM,34.0,28.9,82,29.21,3.0,North,10.4,-,N/A,Snow,Light Snow,350,2012-12-31 23:56:00
2:58 PM,33.8,28.4,81,29.19,3.0,NNW,9.2,-,N/A,Snow,Light Snow,340,2012-12-31 23:58:00
3:56 PM,34.0,28.9,82,29.21,3.0,NNW,13.8,19.6,N/A,Snow,Light Snow,340,2013-01-01 00:56:00
4:09 PM,33.8,28.4,81,29.20,7.0,NW,15.0,-,N/A,Snow,Light Snow,320,2013-01-01 01:09:00
4:56 PM,35.1,28.0,76,29.22,7.0,NW,18.4,29.9,N/A,Snow,Light Snow,310,2013-01-01 01:56:00
5:08 PM,35.6,28.4,75,29.20,3.0,NW,21.9,-,N/A,Snow,Light Snow,310,2013-01-01 02:08:00
5:56 PM,34.0,28.9,82,29.23,3.0,NW,19.6,-,N/A,Snow,Light Snow,320,2013-01-01 02:56:00
6:09 PM,33.8,28.4,81,29.21,5.0,NW,21.9,-,N/A,Snow,Light Snow,310,2013-01-01 03:09:00
6:56 PM,34.0,28.0,79,29.23,8.0,WNW,18.4,27.6,N/A,Rain,Light Rain,300,2013-01-01 03:56:00
7:56 PM,34.0,28.9,82,29.25,4.0,NW,16.1,-,N/A,Rain,Light Rain,320,2013-01-01 04:56:00
8:56 PM,34.0,28.0,79,29.25,4.0,NW,18.4,-,N/A,Rain,Rain,310,2013-01-01 05:56:00
9:00 PM,33.8,28.4,81,29.24,2.5,NW,17.3,-,N/A,Rain,Rain,310,2013-01-01 06:00:00
9:16 PM,33.8,28.4,81,29.24,5.0,NW,23.0,-,N/A,Rain,Light Rain,320,2013-01-01 06:16:00
9:56 PM,34.0,28.0,79,29.26,5.0,WNW,18.4,24.2,N/A,Rain,Light Rain,300,2013-01-01 06:56:00
10:56 PM,33.1,28.0,82,29.25,9.0,WNW,11.5,-,N/A,Rain,Light Rain,290,2013-01-01 07:56:00
11:49 PM,33.8,28.4,81,29.22,4.0,NW,12.7,-,N/A,Rain,Light Rain,310,2013-01-01 08:49:00
11:50 PM,33.1,28.0,82,29.24,4.0,NW,12.7,-,N/A,Rain,Light Rain,310,2013-01-01 08:50:00